Theta_e
309 305 306 308 306 306 306 305 305 305 304 304 304 305 308 311 315 321 323 322 320 310 304 307 307 308 308 304 305 306 307 307 307 309 309 311 310 310 309 309 308 307 308 307 306 307 309 309 309 309 309 308 309 311 311 314 316 319 327 328 327 326 324 323 317 312 314 315 314 313 312 311 310 310 310 310 309 311 312 312 313 313 313 312 312 316 319 318
306 303 305 307 305 305 306 305 305 304 304 304 304 304 304 306 313 321 321 318 316 309 305 306 306 305 305 305 306 306 307 306 307 309 310 311 310 309 308 308 308 308 307 307 306 307 308 308 308 309 309 309 309 310 311 314 315 319 325 326 326 325 321 317 312 310 313 314 313 313 312 311 311 310 309 310 309 309 310 311 311 310 310 310 310 314 318 319
303 302 304 305 304 304 304 305 305 305 304 304 304 304 304 305 310 315 314 311 309 306 304 305 304 304 305 305 306 306 306 305 306 308 309 310 310 309 307 307 308 307 307 306 306 306 307 307 308 308 309 309 308 310 312 314 315 316 319 321 324 320 315 313 310 311 313 312 312 312 311 311 310 309 308 309 309 309 310 310 309 309 309 309 308 310 313 315
304 302 303 304 304 304 304 304 304 305 304 304 304 304 304 304 308 311 310 307 306 305 303 304 303 303 304 304 305 305 305 306 307 308 308 309 309 308 307 307 307 306 306 306 306 306 307 307 307 307 307 308 308 309 312 313 313 314 317 320 321 315 311 311 310 311 312 310 310 310 310 310 309 309 308 308 309 309 308 309 309 308 308 308 308 309 312 314
304 302 303 303 304 304 304 304 304 304 305 306 305 304 305 304 306 309 309 307 306 306 303 303 303 303 304 303 304 304 306 311 310 308 309 308 308 307 307 307 306 306 305 305 306 306 307 307 307 308 308 308 308 309 311 311 311 313 315 316 315 312 310 310 309 310 310 309 309 309 309 309 309 308 308 308 309 308 307 308 308 308 308 307 306 307 310 310
305 303 303 304 304 304 304 304 304 304 305 306 305 305 305 304 304 306 307 308 307 305 304 304 303 303 303 303 304 303 307 313 310 307 308 307 307 306 306 306 305 306 306 306 307 307 308 308 308 308 308 308 309 309 309 310 310 312 313 311 311 310 309 309 308 309 309 309 308 308 309 309 308 307 307 307 307 307 307 307 307 306 306 306 306 306 306 305
305 302 303 304 304 304 304 304 305 305 305 306 305 304 305 305 305 304 305 306 306 305 304 303 304 304 303 303 304 303 305 309 308 307 308 307 306 306 306 306 305 306 306 307 307 307 307 307 307 307 308 308 309 308 308 308 308 310 312 310 309 309 308 308 309 308 308 308 308 308 308 308 308 308 307 307 307 307 306 306 305 305 305 305 305 304 303 303
304 303 304 304 304 304 304 305 305 305 306 305 305 304 304 305 305 304 304 304 304 304 304 304 304 304 304 303 304 306 306 307 308 308 307 306 306 306 306 305 305 306 306 307 307 306 307 307 307 307 307 308 307 307 307 307 308 309 310 309 308 308 308 308 307 307 307 307 307 307 307 307 308 307 306 307 307 305 305 305 305 305 304 303 302 301 301 301
303 303 304 304 305 304 305 305 305 305 305 305 305 304 304 305 305 304 304 304 303 303 304 304 304 304 304 303 305 308 308 308 308 307 306 306 306 307 307 306 305 306 307 307 307 306 307 307 307 307 307 306 306 307 307 307 311 310 308 308 307 307 307 307 307 306 307 307 307 306 306 307 307 307 307 306 304 304 305 303 303 303 302 300 300 299 299 300
303 304 304 304 305 305 305 304 305 305 305 306 305 304 304 305 305 305 304 304 304 303 303 304 304 304 304 303 305 308 308 307 307 306 306 307 307 307 307 306 305 305 306 307 307 306 307 307 307 307 306 306 306 307 307 307 310 309 308 308 307 307 307 306 306 306 306 306 307 307 307 306 306 307 308 305 303 304 304 301 301 301 299 298 298 297 297 298
303 304 304 305 305 304 304 304 305 305 305 306 305 305 305 305 305 305 304 304 304 304 303 303 303 303 303 303 305 307 306 307 307 306 307 306 307 307 307 306 306 305 305 306 306 307 307 307 307 306 307 307 307 307 307 307 308 308 308 308 307 306 306 306 305 306 306 306 306 307 307 306 305 306 306 303 302 303 302 299 299 298 297 296 296 296 296 296
304 304 304 305 304 304 304 305 305 305 306 305 305 305 305 305 305 305 304 304 304 304 304 303 303 303 303 305 306 307 306 306 306 305 305 306 306 307 307 306 305 305 304 305 306 306 307 307 306 306 307 307 308 308 308 308 307 307 308 308 308 307 307 307 306 306 306 306 307 306 308 308 304 303 302 301 302 302 300 298 297 296 296 295 295 295 295 294
304 304 304 305 304 304 304 304 304 305 305 305 305 305 305 305 305 305 304 304 304 304 304 303 302 302 303 306 307 307 307 306 305 305 305 306 307 307 306 305 305 304 304 304 305 306 306 307 305 306 306 306 308 307 307 307 306 308 308 307 309 309 313 310 306 308 306 306 306 306 308 305 302 300 299 300 301 301 299 297 296 296 295 295 294 294 294 294
304 304 305 304 304 305 304 304 304 304 305 305 305 305 305 305 305 305 304 304 304 304 304 303 303 303 303 307 308 307 307 306 305 306 306 306 306 306 305 305 305 304 304 303 304 305 305 306 306 305 305 306 306 306 309 309 307 308 308 311 310 310 320 315 305 307 307 306 306 308 310 303 300 300 298 299 300 300 297 295 296 295 295 294 294 293 293 293
304 304 305 304 305 306 305 305 305 304 304 304 305 305 305 305 305 304 304 304 304 303 303 302 303 304 306 308 308 307 307 307 306 306 306 306 305 305 305 305 305 304 304 303 303 303 304 304 305 305 306 307 306 307 310 312 311 309 310 320 317 311 320 316 304 306 307 307 306 309 312 303 299 299 298 298 299 298 296 295 295 295 294 294 293 293 292 292
304 304 305 305 306 306 306 305 305 305 305 304 304 304 304 304 304 304 304 303 303 303 304 304 304 306 309 309 307 307 307 306 307 306 305 305 304 304 304 304 304 305 304 304 304 303 303 304 305 305 306 307 308 308 311 317 320 315 311 319 318 312 315 313 306 306 306 307 306 306 310 304 299 298 298 297 297 296 295 295 295 294 294 293 293 292 292 292
304 304 305 305 306 306 306 306 306 306 305 305 304 304 304 304 304 303 303 303 304 304 306 308 307 307 309 308 306 306 306 306 306 306 305 305 304 304 304 304 304 305 305 305 305 304 304 305 305 306 306 306 308 308 311 319 321 318 313 314 316 313 311 311 311 308 305 308 308 307 309 303 298 298 297 297 296 295 295 295 294 294 294 293 293 292 292 291
304 304 305 305 306 306 306 306 306 306 306 306 305 305 305 305 305 305 305 305 305 306 307 308 308 310 310 307 306 306 306 306 305 305 305 304 304 304 304 303 304 305 305 305 305 305 305 305 306 309 310 309 309 309 313 316 312 312 312 311 313 312 309 309 310 308 307 309 307 307 308 301 296 297 296 296 296 295 295 294 294 294 294 293 293 292 292 291
304 305 306 306 306 306 306 306 307 307 307 307 307 306 306 306 306 305 305 306 308 310 311 309 308 312 311 306 305 306 305 306 305 305 305 304 304 304 304 303 304 304 303 306 306 305 305 307 307 310 313 313 311 312 315 315 308 307 308 307 309 310 308 308 308 308 308 309 308 309 309 301 296 297 295 295 295 294 295 294 294 294 293 293 293 293 292 292
304 305 305 306 306 306 306 306 307 308 307 308 310 311 310 309 310 310 307 306 308 310 310 309 308 309 308 306 306 306 306 305 305 305 304 304 303 303 304 303 304 304 304 308 308 306 306 309 310 311 314 313 310 309 311 310 307 306 307 308 308 308 308 308 308 308 307 308 311 312 307 299 296 296 295 295 295 294 294 294 294 293 293 293 292 292 292 291
304 304 305 306 306 306 306 305 306 307 306 308 312 314 313 310 311 312 309 309 310 308 307 307 306 307 305 305 306 305 305 305 304 304 304 304 304 304 304 303 304 305 306 307 308 308 307 309 313 313 310 308 306 307 307 307 308 310 309 308 309 309 308 308 308 309 307 306 310 311 303 297 296 296 295 295 294 294 294 293 293 293 293 292 292 292 291 291
304 304 304 306 306 306 306 305 306 306 305 307 309 314 313 308 308 308 307 310 310 307 306 306 306 306 305 305 305 304 305 304 304 304 304 304 304 304 304 304 305 307 307 306 308 311 310 312 314 309 305 306 308 308 309 309 310 310 309 307 308 310 311 311 311 310 306 305 310 311 302 296 296 295 295 295 294 294 294 293 293 292 292 292 291 291 290 290
304 304 304 305 306 306 306 306 305 305 305 306 308 311 311 306 306 306 306 310 311 307 307 307 306 305 305 304 305 305 304 304 304 304 304 304 304 304 304 304 306 308 308 309 310 309 310 312 308 304 304 307 308 310 311 313 313 311 309 309 309 310 309 310 312 310 305 305 308 307 301 296 296 295 295 295 294 294 294 293 293 292 292 291 291 291 290 290
304 304 303 304 305 305 306 306 306 306 305 305 306 307 307 305 306 306 306 310 312 309 306 306 305 305 305 305 305 305 305 304 304 304 303 303 304 304 303 304 307 308 308 310 311 308 310 308 303 305 308 306 307 310 310 310 312 311 310 309 308 307 305 305 307 306 305 307 307 305 303 298 296 296 295 295 295 294 293 293 292 292 291 291 290 290 290 289
304 304 304 303 304 305 305 305 305 305 305 305 306 306 305 306 306 305 307 312 313 310 308 307 306 305 305 305 305 305 305 304 304 303 303 303 303 304 304 304 305 307 309 310 310 309 309 305 303 307 310 308 309 309 306 306 307 309 309 307 305 304 304 304 305 304 304 308 307 306 307 302 296 296 296 295 295 294 293 292 292 292 291 291 290 290 289 289
304 303 304 303 304 305 304 305 306 306 305 306 306 307 305 305 306 305 309 316 315 312 310 309 308 307 306 306 305 305 307 306 304 304 303 303 303 303 305 306 305 306 308 307 307 308 306 304 305 307 308 311 312 307 305 307 306 306 306 305 305 304 305 305 304 304 306 307 305 304 305 303 298 296 296 295 294 293 293 292 291 291 291 290 290 289 289 288
303 304 304 303 304 303 304 307 308 306 307 308 307 307 305 305 306 305 311 316 313 312 311 309 309 308 307 307 306 306 308 307 305 305 303 303 304 303 305 308 308 306 306 306 308 307 305 308 308 308 310 312 309 303 304 306 304 305 305 304 305 306 305 304 302 303 305 305 303 302 302 303 300 297 296 295 294 293 293 292 291 291 291 290 289 289 289 288
304 304 304 303 303 303 305 308 308 306 308 309 307 306 306 306 305 307 315 315 310 310 311 308 307 307 307 308 307 306 306 305 306 306 304 304 303 303 306 307 307 307 305 307 310 305 305 308 306 306 311 309 304 302 304 304 303 307 306 302 304 305 303 303 301 303 304 303 305 304 302 304 301 297 296 295 294 293 293 292 291 291 290 290 289 289 289 288
304 304 304 304 303 303 305 307 306 306 308 306 306 307 306 305 306 311 315 311 308 310 310 309 308 306 308 308 306 306 306 305 305 306 305 304 303 303 305 306 304 306 306 306 310 307 304 304 302 305 308 305 304 303 303 304 304 304 303 302 305 304 304 303 301 303 302 302 306 305 302 303 301 297 296 296 295 293 292 291 291 291 290 290 289 289 288 288
304 304 304 304 304 303 304 305 305 306 306 305 307 307 305 306 312 316 312 308 310 312 309 309 308 306 308 310 308 306 306 306 305 306 305 302 302 302 304 304 302 307 309 308 311 308 303 303 302 303 304 301 302 303 301 302 301 301 303 306 306 304 305 304 302 304 303 305 309 304 299 299 299 298 295 295 294 293 292 291 290 290 290 290 289 289 288 288
304 304 304 304 304 303 304 305 305 305 304 306 307 306 307 311 315 316 309 306 312 312 309 309 309 308 310 310 308 306 308 307 305 307 307 303 302 301 303 304 303 310 315 311 311 308 305 306 303 301 301 300 303 304 302 301 300 301 305 304 301 302 307 307 306 306 306 309 309 302 297 298 300 299 294 292 293 292 291 291 291 290 290 289 289 289 288 288
304 305 304 305 304 303 305 308 308 305 305 307 306 306 312 315 313 312 310 307 310 310 308 308 308 309 310 309 306 306 309 307 305 308 307 304 303 301 302 302 302 309 312 308 308 307 306 305 302 302 301 300 303 304 303 303 302 303 304 303 304 305 306 308 308 306 306 308 306 300 298 299 300 296 293 292 292 291 291 291 290 290 289 289 289 289 289 288
304 304 305 305 304 304 306 309 308 305 306 307 305 308 316 317 310 309 310 309 308 307 307 307 310 310 310 308 306 305 307 306 305 307 306 305 305 303 303 301 301 303 304 305 304 305 308 306 303 305 303 300 302 301 301 302 303 304 302 302 306 304 301 304 304 302 303 304 302 299 298 299 298 293 292 292 291 291 291 290 290 290 289 288 288 289 288 288
304 305 305 304 305 304 305 307 306 306 307 305 308 314 317 313 307 307 309 310 308 308 308 308 310 311 308 307 305 305 306 305 306 306 306 308 307 304 304 302 301 301 302 304 302 302 307 306 303 303 301 301 303 300 300 301 302 304 302 301 303 302 301 303 303 300 301 301 300 299 298 300 299 295 291 291 291 291 291 290 290 289 289 288 288 288 287 287
304 305 304 304 305 304 305 306 305 307 306 305 314 320 315 309 307 308 310 310 309 309 309 308 309 310 308 306 306 306 304 304 307 307 307 308 305 303 303 301 300 301 302 304 301 301 304 304 304 301 299 301 302 300 301 302 303 303 302 302 303 303 303 303 302 300 299 300 300 300 298 296 295 293 291 291 291 291 291 290 289 289 289 288 288 288 287 287
304 304 304 304 305 305 306 306 305 306 305 311 322 320 311 307 306 308 309 308 307 307 308 310 310 310 308 306 307 307 304 303 307 307 305 305 304 303 303 301 298 299 300 301 301 302 302 303 304 301 300 300 300 300 301 300 302 302 301 302 303 302 301 300 301 301 298 298 299 299 297 293 292 292 292 292 291 290 290 290 289 289 288 288 288 287 287 287
304 304 303 304 304 305 306 305 305 305 304 314 322 314 306 305 305 307 307 305 306 306 307 310 308 306 307 307 306 307 305 304 306 306 303 303 303 301 302 302 298 298 298 299 301 303 302 303 304 302 303 301 297 299 300 299 300 301 299 300 302 303 301 300 300 300 299 298 298 297 296 295 296 295 292 291 291 290 289 289 289 289 288 288 287 287 286 286
306 304 303 303 304 304 305 305 305 305 307 314 317 310 307 307 305 305 305 304 305 306 308 309 306 304 307 306 305 305 307 307 306 305 303 303 303 300 300 301 299 298 298 298 301 302 301 303 304 301 301 300 299 300 301 301 300 299 297 299 302 302 302 302 299 298 298 296 296 298 296 296 297 295 292 290 291 290 288 288 288 289 289 287 287 286 285 285
308 306 304 303 303 302 304 306 304 306 313 316 314 310 308 308 305 304 304 304 305 306 307 307 305 306 307 306 305 305 306 306 305 304 304 304 304 301 298 299 300 299 299 299 300 300 300 302 304 303 299 299 302 301 301 302 301 300 300 300 303 302 300 301 299 297 297 296 296 297 296 296 295 293 291 289 290 290 288 287 288 288 288 287 285 285 285 284
310 308 305 303 305 304 305 307 306 310 315 312 310 309 308 307 305 304 304 304 304 305 306 307 307 308 307 305 305 304 304 304 304 304 304 304 302 300 298 299 300 300 299 300 300 299 301 301 301 303 302 300 301 300 298 299 299 301 302 301 303 302 299 299 298 298 298 296 296 296 296 296 293 291 290 288 289 290 288 287 288 288 288 286 285 285 284 284
309 310 306 303 306 307 307 309 306 309 312 310 308 309 308 308 306 304 304 304 304 304 304 306 307 306 305 305 305 303 304 305 304 304 304 303 301 300 300 299 299 299 300 302 302 300 300 299 297 300 301 300 300 299 298 298 298 298 298 297 299 300 298 297 296 297 297 296 296 295 294 294 292 291 290 287 287 288 286 287 288 288 287 286 285 285 284 284
309 311 307 304 307 307 307 310 305 305 310 309 307 307 307 306 305 304 304 304 304 304 303 304 305 304 303 304 304 304 304 305 304 304 303 302 301 300 300 299 298 298 300 301 301 298 298 298 297 299 300 299 299 298 296 297 299 298 296 296 299 300 300 298 295 297 297 295 294 294 294 294 291 290 289 287 286 286 286 287 288 287 286 286 285 284 284 284
307 307 304 304 307 306 307 311 307 305 307 306 304 304 305 305 304 304 304 304 304 304 303 303 304 304 302 302 303 303 303 303 303 302 302 302 301 299 298 298 296 297 299 301 299 297 297 298 297 299 300 298 299 300 297 296 297 296 295 298 298 298 300 299 296 296 297 295 294 293 293 293 291 288 287 286 285 286 286 287 287 286 285 285 284 284 284 283
305 305 304 304 305 306 311 313 310 307 305 303 304 304 303 302 304 305 304 303 303 303 303 303 302 302 302 301 303 303 301 302 303 300 300 302 301 299 297 296 296 296 297 298 298 295 296 299 298 298 299 297 298 302 301 298 295 292 294 297 297 296 297 296 294 294 295 294 294 293 292 293 292 288 286 285 285 285 286 286 285 285 285 284 284 284 283 283
306 305 304 305 304 306 310 309 307 307 306 306 307 306 304 303 303 303 303 302 300 300 301 302 301 301 301 302 303 302 300 301 301 299 300 301 300 298 297 296 295 296 295 295 295 295 298 300 298 297 297 296 296 298 298 296 293 292 294 296 296 295 295 295 294 294 294 293 293 293 292 292 290 288 287 286 285 285 285 285 285 285 284 284 284 283 283 283
307 307 306 305 305 306 306 303 303 306 307 308 307 305 306 306 303 301 301 301 301 300 300 300 300 300 300 302 304 301 299 301 301 301 300 299 299 298 297 297 295 295 296 294 293 296 299 299 297 297 298 298 297 296 294 294 292 292 293 294 295 295 294 294 294 294 293 292 291 291 290 289 288 287 287 286 285 285 285 285 285 284 284 284 283 283 283 283
307 310 308 306 305 305 306 304 303 304 305 307 306 304 305 306 303 301 299 299 299 299 299 299 299 299 299 301 302 300 299 300 302 300 298 297 298 297 297 297 296 295 296 295 293 295 297 296 295 295 295 296 296 293 292 292 291 292 292 293 295 295 293 293 294 293 292 291 290 290 289 288 287 287 286 285 285 285 284 284 284 284 284 283 283 283 283 282
307 307 306 306 307 307 308 307 303 302 303 305 306 304 305 305 303 302 302 300 299 299 300 301 300 300 299 298 300 301 300 300 300 299 297 297 298 299 298 297 295 295 295 294 293 294 294 295 295 293 292 293 293 292 292 292 291 292 292 292 294 295 294 293 294 293 291 290 290 289 287 286 286 286 286 285 285 284 284 284 284 284 283 283 283 283 282 282
305 305 303 305 305 305 306 304 302 302 303 305 307 305 305 304 302 300 300 301 300 298 300 302 301 299 300 300 301 302 300 299 298 298 298 299 299 299 300 298 296 295 294 294 293 293 294 297 294 292 292 292 292 293 293 291 291 291 292 292 293 294 293 293 293 291 290 290 289 287 286 285 285 285 285 285 285 285 284 284 284 284 283 283 283 282 282 282
304 304 302 303 304 302 303 303 302 304 304 303 305 303 302 303 302 299 298 299 301 300 299 301 301 299 299 301 303 302 299 298 299 298 298 299 299 299 299 298 298 297 295 295 294 292 295 297 295 292 292 292 292 293 292 291 291 290 290 291 292 291 291 290 289 288 287 288 287 286 285 284 285 285 285 285 285 284 284 284 284 283 283 283 282 282 282 282
304 304 302 304 304 302 303 302 302 306 307 303 303 303 302 301 299 298 297 296 298 300 298 298 300 299 298 300 301 299 296 296 297 298 297 297 298 298 297 296 296 297 296 296 295 294 295 296 295 294 293 292 291 291 291 290 290 290 291 291 290 290 290 289 287 286 286 286 286 285 284 284 285 285 284 284 284 284 284 284 283 283 283 282 282 282 281 281
303 303 302 303 304 301 301 301 302 306 306 301 301 302 301 299 296 298 300 297 294 296 296 296 297 298 299 300 298 295 294 294 295 296 296 296 296 296 296 295 294 295 297 296 294 294 294 294 294 294 293 293 291 290 290 290 290 292 293 291 289 289 288 287 286 286 285 285 285 285 285 285 285 284 284 284 284 284 284 283 283 282 282 282 282 281 281 280
Wind_Speed
8 5 3 2 2 1 4 4 6 7 7 7 6 5 2 2 4 6 8 6 4 5 4 4 6 7 6 5 5 7 7 6 6 5 4 2 3 5 8 10 9 7 7 6 5 3 1 3 5 3 1 3 6 7 5 8 11 5 2 3 3 4 4 4 1 4 1 2 3 5 11 8 4 14 16 13 12 11 10 9 10 13 15 14 18 16 15 13
9 6 5 4 4 4 3 3 6 6 6 7 7 5 3 2 2 4 6 6 7 5 5 6 7 5 4 4 6 7 5 4 5 5 4 4 5 8 9 9 8 8 8 6 6 5 3 4 5 4 4 6 7 8 5 7 11 7 2 3 4 4 6 6 5 6 3 2 7 9 10 9 7 12 15 9 9 10 8 10 13 17 17 14 15 7 9 11
8 6 6 5 5 4 2 4 5 6 6 7 7 6 4 3 3 3 4 5 8 6 5 6 5 3 4 5 5 5 4 4 6 6 4 5 7 8 8 7 7 7 7 5 5 5 5 5 4 4 6 8 8 9 7 6 8 9 6 2 5 5 6 11 14 8 4 4 6 10 12 12 11 11 10 8 10 10 5 8 13 13 17 16 14 8 3 7
8 7 6 6 6 5 4 5 6 6 7 8 8 6 4 4 4 4 6 6 8 6 5 5 3 3 3 4 4 4 4 4 4 4 3 6 7 7 6 6 7 6 5 3 3 3 2 3 2 3 5 6 9 8 6 8 6 6 8 4 6 5 5 12 17 10 5 8 6 8 11 10 11 11 11 9 8 7 3 4 9 13 19 19 14 12 7 6
9 8 7 7 6 7 6 6 7 8 9 10 9 7 6 6 7 8 8 8 8 7 6 6 4 4 3 3 4 4 3 2 1 2 3 5 4 5 5 6 5 4 3 1 1 1 3 3 1 4 4 5 7 6 5 12 11 6 6 9 10 6 4 11 16 9 7 9 7 9 8 8 13 12 11 9 6 8 8 8 14 17 16 12 12 14 12 10
9 8 7 7 7 8 8 9 10 10 10 11 10 8 7 8 9 10 11 10 10 9 8 7 6 4 3 3 3 4 4 1 1 3 3 3 3 4 5 5 3 3 2 2 3 4 4 4 4 5 4 4 5 5 8 11 9 4 5 8 11 10 7 15 18 12 11 10 7 8 7 9 13 11 11 11 11 16 18 17 14 11 12 11 12 13 13 13
8 7 7 6 6 8 10 11 11 12 11 11 10 9 7 8 9 10 12 12 11 10 9 8 7 5 4 4 3 4 4 1 1 1 2 3 4 5 4 3 1 1 1 2 3 4 5 6 6 8 4 3 5 6 8 10 6 3 4 4 8 12 12 18 19 16 16 13 12 11 9 9 9 8 9 16 19 18 16 9 9 14 14 12 13 16 15 15
7 6 6 6 6 8 10 10 9 11 11 11 11 10 8 8 9 10 11 11 11 11 11 9 8 6 4 4 2 3 4 4 3 3 3 3 3 3 2 2 0 0 2 4 4 4 5 5 5 6 3 2 4 6 9 11 9 4 3 4 7 11 15 19 21 22 21 18 18 14 10 10 9 7 10 17 16 12 10 13 15 13 14 17 19 20 18 17
5 4 5 6 7 8 9 8 6 7 9 10 10 10 8 9 10 10 10 10 10 11 11 10 8 6 5 3 2 2 4 4 5 4 2 1 2 3 3 2 1 1 3 4 4 4 4 5 5 4 2 4 6 8 9 6 3 3 5 8 9 13 19 22 23 24 22 19 18 11 8 10 6 6 7 9 17 20 19 21 19 18 22 25 24 24 23 21
4 3 3 6 8 8 6 5 4 3 5 7 7 7 7 8 9 10 9 9 9 9 9 9 8 7 6 4 1 0 2 4 6 4 2 1 3 4 4 2 2 1 1 0 2 4 4 5 6 4 4 6 5 7 8 3 3 7 11 12 12 17 22 22 22 24 20 17 15 9 7 9 2 0 2 10 20 19 21 26 24 25 28 28 27 27 26 25
3 2 3 5 6 6 4 1 1 1 2 5 4 5 6 7 8 8 8 8 8 8 8 8 8 7 6 4 3 1 0 2 3 2 2 3 5 5 4 3 2 2 3 3 2 4 8 9 8 6 4 4 5 9 10 5 6 10 11 12 13 16 21 20 19 21 15 7 6 6 4 7 2 1 2 10 18 18 25 30 28 30 30 29 29 29 29 30
2 2 4 4 2 3 2 2 1 1 1 1 3 5 6 7 7 7 7 7 7 6 6 6 7 7 6 5 4 2 1 2 3 4 5 5 6 5 4 4 4 5 6 5 3 3 7 9 8 6 4 4 4 6 7 7 9 11 9 7 10 10 12 14 12 13 8 3 3 2 5 8 5 7 11 17 20 21 28 31 29 31 31 31 31 32 33 33
2 2 3 1 1 2 3 4 3 3 3 3 4 5 6 7 7 7 6 6 6 6 5 6 7 7 6 3 2 2 3 3 4 5 5 5 5 5 4 5 5 5 6 6 7 6 7 8 7 7 7 6 4 4 8 11 11 10 6 3 5 7 6 9 6 5 4 4 2 3 3 5 6 12 17 18 18 23 30 31 29 30 30 32 33 34 35 35
1 1 1 1 2 3 5 6 5 5 6 5 6 7 7 7 7 7 6 6 6 5 6 6 6 7 5 1 1 3 4 4 4 5 4 4 5 6 6 5 6 6 7 6 7 10 9 9 8 8 9 8 8 8 9 10 6 4 2 1 2 3 5 8 5 5 5 1 2 6 3 1 5 11 18 20 20 26 31 28 28 29 30 31 33 34 35 35
1 0 1 2 3 5 6 6 7 8 8 8 8 9 9 8 8 8 8 7 7 6 6 6 6 4 1 2 2 4 4 3 4 2 3 5 6 6 6 7 8 8 9 7 6 8 7 7 7 6 6 7 8 6 5 5 3 1 1 4 2 1 5 7 5 4 4 1 1 5 3 2 4 10 17 21 24 30 31 27 27 29 29 30 31 32 33 33
1 1 3 3 4 5 6 6 8 9 9 9 10 10 10 10 10 9 9 8 8 8 7 6 4 1 2 1 1 2 1 2 3 2 4 8 8 7 7 8 8 7 8 7 5 7 5 4 6 6 6 4 3 2 3 4 4 2 2 2 4 1 3 5 5 3 5 4 1 2 3 3 4 11 17 20 26 32 30 25 26 27 27 28 28 30 31 32
2 2 4 4 4 5 5 6 8 9 9 9 10 10 11 11 10 10 9 8 8 7 6 6 4 1 2 2 2 1 1 2 3 5 10 11 8 7 7 7 4 4 7 7 7 5 3 4 5 5 5 3 1 2 4 4 4 4 1 1 4 2 3 3 6 5 4 5 1 2 4 5 5 11 18 20 25 31 27 24 25 25 25 26 26 29 30 32
2 4 5 5 4 5 5 6 8 9 9 9 9 10 10 10 10 9 9 8 7 5 4 4 4 2 2 2 1 1 2 3 6 9 11 9 6 6 6 5 2 2 5 6 6 4 4 5 3 0 2 2 1 4 3 2 2 4 3 2 4 3 3 4 5 4 1 3 2 2 4 7 7 10 17 20 25 30 25 22 23 23 24 25 26 27 28 29
4 5 6 5 4 4 5 6 8 9 9 9 10 9 8 8 7 6 7 6 4 3 2 3 4 1 1 2 2 2 4 6 8 8 7 7 6 6 5 3 2 3 3 2 3 5 6 2 1 1 3 3 3 4 5 6 3 3 4 2 3 5 5 6 5 3 1 2 0 2 3 7 7 8 13 18 24 27 23 21 22 22 24 24 25 25 25 26
5 6 7 6 4 4 5 5 6 8 8 8 8 8 6 5 3 3 3 3 1 1 1 3 4 3 2 3 4 5 7 6 6 4 5 6 6 5 3 1 1 2 3 2 2 4 4 1 1 4 5 6 5 5 6 6 2 1 2 2 4 4 5 7 5 4 2 4 3 4 6 7 7 7 9 15 21 22 19 20 21 22 23 23 24 23 23 23
5 6 7 7 6 5 4 4 5 6 7 6 6 6 4 3 1 1 1 2 0 2 2 1 2 2 2 3 4 6 5 1 2 2 4 6 6 4 2 1 0 2 5 5 3 1 3 1 5 6 7 7 5 2 1 1 3 5 3 4 5 3 5 6 2 3 1 4 4 2 9 7 7 7 8 14 17 16 17 18 19 21 22 22 22 22 22 22
6 7 8 8 8 6 5 4 4 5 5 4 5 5 2 3 2 2 1 1 1 2 2 3 2 1 1 3 5 5 2 2 2 2 4 6 5 2 2 3 1 2 4 2 2 2 3 2 7 6 4 3 4 6 7 5 4 5 3 3 4 4 4 6 3 3 1 3 5 1 9 6 6 8 8 14 16 15 20 21 21 21 22 23 22 22 22 23
6 7 7 8 8 7 6 5 4 4 4 3 2 3 2 2 3 2 3 2 1 2 3 4 4 1 1 3 7 6 3 4 0 2 6 7 4 2 3 3 1 2 4 2 3 0 2 3 6 6 5 5 6 7 8 6 4 3 2 1 3 4 2 2 5 6 4 2 5 3 9 5 5 7 7 13 17 19 22 24 24 23 22 22 21 21 21 22
6 6 6 7 8 8 7 6 4 3 2 2 0 1 1 2 2 3 4 1 1 1 3 3 4 3 2 2 7 5 5 5 3 4 9 8 4 3 2 1 2 2 3 2 3 3 2 4 4 6 5 5 4 6 8 6 4 3 0 3 2 3 2 4 5 7 6 5 3 5 7 3 3 5 5 9 14 17 19 22 22 22 21 19 19 19 19 19
6 6 6 6 8 8 7 6 4 3 3 3 1 1 2 2 1 2 3 2 1 1 2 2 2 3 5 4 5 3 3 4 6 8 10 8 6 3 1 1 1 1 3 4 4 2 2 3 3 5 6 6 5 4 4 4 3 5 1 3 4 4 5 6 5 7 5 5 2 5 4 2 2 5 4 5 7 11 14 17 18 19 19 18 18 18 17 17
6 5 6 6 7 8 7 6 3 2 2 3 1 1 1 1 1 2 2 3 2 2 0 1 0 3 6 6 5 1 2 2 5 10 11 10 6 3 2 2 1 0 2 4 3 1 1 4 6 5 4 7 6 3 2 3 5 3 3 5 4 3 6 7 6 4 1 4 4 2 1 2 2 3 4 5 6 7 9 12 14 16 17 17 17 16 16 16
5 5 6 7 7 7 7 5 3 2 1 1 1 1 2 1 1 2 2 4 3 1 1 1 0 3 5 7 7 2 1 2 2 9 14 12 7 3 2 3 2 1 2 2 3 0 1 5 8 6 5 6 6 3 2 3 5 2 3 2 3 6 8 7 3 1 3 4 6 1 3 4 2 3 5 5 7 6 6 7 10 14 15 15 15 14 15 16
4 4 5 6 7 8 8 5 4 3 2 1 2 2 1 1 2 2 4 3 2 0 1 1 1 4 4 5 7 6 3 2 2 5 11 14 11 4 1 1 1 3 3 4 3 2 1 3 4 4 5 4 3 1 3 2 2 5 3 1 5 7 8 6 1 4 2 2 6 5 1 2 1 3 5 4 6 5 4 5 6 10 13 13 13 14 14 15
3 4 5 7 8 9 9 6 4 2 2 1 1 1 2 2 2 3 5 2 1 1 2 1 1 4 5 3 6 7 5 3 3 3 8 13 12 3 2 2 1 3 3 4 5 3 0 1 0 3 4 2 1 4 4 3 1 6 4 4 5 5 4 2 3 3 2 2 4 6 3 1 1 4 4 1 3 3 3 4 4 8 11 10 11 12 13 15
3 5 6 7 8 9 10 7 4 1 1 1 1 2 2 2 3 4 3 0 1 1 1 2 1 5 5 4 4 7 4 3 3 4 8 14 18 12 3 1 5 3 2 3 2 2 0 2 1 3 2 1 2 4 2 4 3 5 6 5 5 4 3 2 2 2 4 2 6 3 4 5 2 3 3 1 1 3 3 3 3 7 8 8 8 10 12 13
4 5 6 7 7 9 9 6 3 2 0 2 2 2 2 2 3 5 2 1 1 2 2 2 2 3 5 3 3 5 4 4 3 4 5 10 18 20 9 3 7 5 3 5 4 3 4 4 2 1 1 2 2 4 3 1 1 4 4 4 5 5 4 4 4 4 4 3 7 2 6 7 4 3 2 1 2 4 4 3 2 4 7 8 8 9 9 10
4 5 6 6 6 8 7 3 2 2 1 2 2 1 2 3 3 2 1 2 1 1 1 1 2 2 3 3 3 4 3 4 4 4 3 3 6 10 8 3 4 4 3 4 4 4 4 2 4 3 2 2 3 3 5 5 5 5 4 5 5 4 5 4 4 2 1 4 6 4 8 5 3 1 3 4 4 5 5 4 2 2 5 9 9 8 9 9
5 6 6 6 6 7 5 2 2 2 1 3 3 1 4 5 1 1 1 2 0 1 0 0 2 2 3 4 4 4 2 2 3 4 3 3 5 4 5 5 4 3 1 2 4 4 3 5 5 3 2 2 3 4 4 4 4 5 3 4 3 2 3 3 4 2 2 5 7 6 5 1 1 1 4 5 6 7 7 5 2 2 4 9 9 8 9 10
6 6 6 6 6 6 5 2 2 2 3 4 4 4 6 4 1 0 1 2 1 2 1 1 3 4 4 3 1 2 2 1 2 5 4 3 4 4 4 7 8 4 1 2 2 2 2 4 3 2 2 2 2 2 2 2 2 4 2 4 3 3 2 2 3 3 4 6 7 6 3 2 1 2 5 8 10 9 6 3 2 2 3 8 8 7 8 10
7 7 6 5 6 6 5 3 2 4 4 4 4 5 5 2 1 1 1 3 2 3 3 2 3 4 4 2 1 1 2 0 2 6 5 4 3 3 3 5 7 5 3 2 1 1 2 3 5 1 2 0 1 1 3 4 1 4 0 4 1 2 4 3 4 5 5 5 5 3 1 0 1 1 5 9 10 6 3 2 2 2 3 7 8 6 8 11
8 7 5 5 5 5 5 4 3 4 4 3 5 4 2 2 1 1 1 2 1 1 3 4 4 4 3 3 3 4 2 1 3 4 3 3 3 3 3 2 5 7 4 2 1 2 2 4 6 3 2 0 1 2 1 2 1 1 2 1 3 4 6 2 5 4 2 3 4 2 1 1 2 1 4 5 3 2 3 0 1 2 3 6 8 7 10 14
10 8 6 4 4 4 5 4 4 4 2 4 5 2 2 1 1 1 2 2 1 0 2 2 2 2 2 2 3 6 4 2 2 3 2 2 2 4 3 3 5 7 5 1 0 1 2 3 7 3 2 2 1 2 3 0 3 3 1 3 3 1 3 3 2 4 3 3 5 4 5 3 2 2 2 1 2 3 4 4 3 4 5 7 8 10 14 17
11 10 8 5 4 3 4 5 4 3 3 5 5 2 2 1 1 1 3 3 1 2 4 2 0 1 2 1 2 6 5 3 3 3 3 2 2 3 3 3 4 8 10 5 1 1 3 2 7 2 2 3 2 3 3 3 1 3 1 2 2 2 3 2 0 2 3 5 5 5 8 5 3 2 1 1 4 4 8 8 4 6 7 7 10 15 19 21
9 8 7 6 5 4 5 5 2 2 5 5 3 1 2 1 2 3 4 3 0 2 3 1 1 2 3 3 0 4 4 3 2 3 3 2 2 3 5 3 4 11 15 6 2 2 1 2 4 4 3 4 3 4 2 4 4 3 3 4 2 2 2 1 1 2 2 6 6 4 6 3 1 3 3 2 4 4 8 9 5 7 7 8 15 20 23 25
6 5 5 5 7 7 6 5 4 4 4 3 3 1 1 1 1 4 6 4 1 2 2 0 2 3 2 3 2 2 2 3 2 3 2 2 2 2 4 4 3 10 14 5 3 3 2 3 3 5 6 4 2 1 1 1 2 3 4 4 3 2 0 0 2 2 2 4 4 4 6 3 1 3 5 4 2 3 8 8 6 7 8 12 18 22 23 25
3 2 3 6 7 6 6 7 8 6 4 3 2 2 1 2 1 4 7 5 3 4 4 3 3 3 1 3 3 2 2 3 3 3 2 2 2 1 3 5 5 6 7 5 3 2 2 1 2 4 5 3 3 4 2 3 3 2 1 1 1 1 2 4 5 1 1 3 4 4 8 4 2 4 4 3 2 5 11 8 4 8 11 14 19 21 23 26
3 2 3 6 5 4 4 6 7 5 4 2 2 3 2 2 1 4 7 6 3 5 6 5 3 3 2 1 1 2 3 3 3 3 2 1 2 1 3 9 8 3 1 1 2 1 1 2 0 3 4 4 7 6 1 3 5 5 2 2 2 1 3 2 6 3 1 2 2 2 6 4 2 4 5 3 3 7 11 6 4 9 13 14 18 23 28 31
6 6 4 5 4 4 5 4 5 5 4 2 3 4 4 2 3 4 6 7 4 4 5 4 3 3 2 1 1 2 2 2 2 3 3 1 1 0 4 9 7 3 2 1 2 3 2 2 1 3 4 4 6 6 4 4 6 4 2 2 1 1 3 5 4 2 1 3 2 3 5 4 3 5 4 1 6 11 12 6 6 13 16 17 22 27 31 34
10 10 7 3 0 2 3 3 2 3 2 3 4 4 5 6 5 4 4 5 5 3 3 2 3 3 1 1 2 2 1 2 2 2 3 2 1 1 5 8 6 4 3 1 1 4 2 1 2 3 5 6 6 6 7 5 4 2 3 0 1 1 3 1 1 2 1 3 2 3 6 4 3 6 4 5 10 15 16 13 16 21 20 21 25 29 32 33
8 8 8 7 2 2 3 7 8 5 3 4 4 2 4 5 6 5 4 5 7 6 4 1 1 2 2 1 3 3 3 3 1 1 3 2 1 2 5 7 7 5 4 1 1 2 0 2 2 3 1 4 5 5 5 5 5 3 2 2 1 3 4 1 1 1 2 3 1 3 6 5 3 4 7 8 10 13 14 17 22 22 19 22 28 31 32 32
3 2 4 7 8 9 8 10 13 9 5 4 4 3 3 3 2 4 6 5 7 9 7 3 1 2 4 4 3 4 4 3 2 2 3 1 2 1 3 5 5 3 3 6 6 2 2 0 1 4 4 5 5 6 6 4 6 7 8 8 5 4 5 4 2 2 4 1 2 5 6 6 8 9 9 9 10 10 11 17 21 20 21 28 32 32 32 32
2 1 1 3 6 10 11 9 10 7 5 5 3 1 3 2 0 3 5 3 5 6 6 6 5 3 3 4 3 2 3 3 4 3 1 1 2 2 0 2 4 3 2 6 8 3 4 2 2 2 3 6 6 8 9 6 7 9 11 10 5 4 5 5 3 5 3 1 6 7 3 6 10 10 9 10 9 8 11 18 21 21 26 32 33 32 33 35
2 2 4 4 2 3 5 5 8 8 5 5 4 2 3 3 2 3 2 2 4 4 3 4 6 4 2 1 2 1 3 3 3 2 0 1 2 3 2 1 3 4 3 4 5 4 5 1 3 1 4 8 7 9 10 7 7 8 9 9 6 5 7 7 7 6 5 3 8 7 5 8 10 10 10 10 10 11 17 23 23 25 31 33 33 32 34 37
6 6 5 5 4 4 5 7 12 12 7 4 4 2 3 4 2 1 1 2 2 5 4 3 2 4 4 2 4 3 0 1 0 2 1 0 2 1 1 1 1 3 4 3 3 3 4 1 3 2 5 7 7 9 8 5 7 8 8 9 5 6 8 7 6 4 4 6 8 6 7 10 9 8 10 13 16 19 23 25 25 28 32 32 31 32 34 38
7 6 6 10 9 7 7 8 10 10 5 4 4 2 2 4 3 1 3 4 1 3 5 4 2 2 3 5 5 3 4 4 4 4 3 2 1 0 1 1 1 2 4 2 2 3 3 1 3 2 4 6 5 6 6 6 8 10 11 8 3 4 4 3 2 1 1 4 6 6 8 10 8 9 13 16 20 23 24 25 26 28 29 29 30 32 34 33
6 7 13 15 8 5 4 5 5 6 3 4 2 1 1 2 4 4 3 4 3 1 1 4 2 1 3 5 4 3 4 3 4 5 3 3 2 2 1 1 2 1 3 1 1 3 3 1 3 5 4 6 4 5 9 10 9 10 10 7 3 4 3 2 2 2 2 4 6 7 7 7 8 11 14 17 20 22 22 24 25 27 28 29 30 31 29 27
10 13 13 12 5 5 4 3 4 4 2 1 1 2 2 3 6 6 4 3 5 5 2 1 2 2 2 3 1 2 3 3 4 4 3 4 5 4 3 2 2 3 2 1 0 1 3 2 1 3 2 6 6 7 9 8 7 7 6 4 4 4 3 3 2 3 4 4 3 5 7 8 10 12 11 13 16 20 23 25 26 27 30 31 28 25 25 30
Wind_Direction
314 312 259 219 203 311 6 26 28 18 1 341 326 324 306 217 237 220 207 204 168 147 151 166 165 159 158 157 166 171 170 169 171 191 229 265 264 280 284 281 288 309 319 314 300 274 270 350 336 344 352 250 255 257 247 227 223 218 152 167 236 228 232 236 255 339 308 269 323 43 44 51 0 342 335 325 310 298 304 301 301 297 288 307 318 285 251 260
301 305 279 264 250 261 319 1 11 3 344 331 322 308 291 256 222 201 193 173 151 144 132 141 150 151 159 170 181 180 181 194 215 233 255 271 264 284 293 286 287 298 305 301 288 269 255 292 302 306 246 243 252 243 242 214 204 204 162 192 230 221 244 272 333 5 46 328 338 357 9 16 350 332 333 325 298 306 316 312 311 300 303 341 1 325 259 268
301 300 290 281 271 266 304 346 355 345 328 319 307 292 281 263 232 204 195 167 166 177 157 148 149 156 176 186 195 195 209 239 250 249 247 243 256 282 292 287 289 296 298 295 289 272 257 263 277 297 256 252 258 238 224 198 196 208 201 231 242 229 269 301 324 348 44 4 354 351 342 341 334 325 324 311 300 308 301 301 302 305 327 349 11 22 313 301
309 300 297 297 297 301 314 329 331 324 320 313 295 276 262 247 233 211 203 193 196 202 186 184 178 162 174 191 206 214 230 261 268 254 231 230 254 283 287 285 292 298 304 305 282 263 281 282 273 306 283 269 272 258 220 198 202 204 192 203 233 253 294 304 317 323 353 2 358 335 332 332 321 313 308 307 312 304 270 295 303 313 326 332 355 31 53 25
313 308 309 311 313 314 315 313 309 308 313 311 293 268 248 230 219 210 206 205 209 210 200 200 193 176 168 182 209 215 215 314 304 175 207 230 254 284 285 287 298 309 322 341 302 72 39 0 307 292 280 275 281 283 254 226 218 214 215 219 237 271 291 300 313 306 316 337 330 327 329 312 306 304 299 300 290 279 286 300 307 317 331 351 28 54 72 64
311 309 307 310 314 312 310 307 305 306 310 310 292 266 247 230 219 212 211 213 215 212 206 202 199 188 176 196 224 212 189 58 93 153 204 233 262 293 294 293 311 329 345 76 63 42 6 328 283 267 249 251 262 246 267 260 233 233 261 241 258 282 282 293 300 298 316 325 315 313 295 293 300 302 303 290 269 276 292 302 318 4 46 60 67 67 66 61
305 301 300 305 310 308 305 303 306 307 306 303 285 266 249 235 223 214 213 214 215 212 209 206 204 195 195 220 235 215 211 230 248 200 225 245 282 299 299 292 332 342 354 80 49 3 324 311 280 266 252 246 260 249 282 311 321 295 272 270 289 297 289 289 295 303 315 315 310 302 280 283 287 297 314 298 294 301 311 335 39 67 75 74 71 63 57 55
296 292 296 298 298 299 297 297 300 297 296 295 280 263 250 234 221 214 209 208 209 208 209 208 205 203 209 230 233 231 249 252 224 219 242 273 290 301 305 294 14 89 53 50 8 334 308 319 316 297 284 272 307 312 324 335 330 305 261 299 317 309 299 297 300 302 303 302 304 299 273 267 275 301 311 308 333 22 59 76 81 83 75 66 62 55 50 46
282 280 290 292 291 291 290 291 287 278 285 288 272 252 237 225 215 209 202 200 201 201 208 209 207 211 214 228 247 274 277 239 206 217 260 301 298 313 318 304 298 140 82 44 344 328 317 325 337 349 324 303 320 319 332 348 304 293 291 311 320 306 301 301 298 294 293 293 293 291 272 270 292 330 320 3 54 85 93 82 79 78 68 57 53 48 42 37
267 265 279 289 293 292 292 291 280 264 262 263 252 230 217 210 205 200 195 191 190 197 204 205 207 211 211 218 215 293 281 221 210 223 236 262 305 315 311 307 326 347 85 151 295 306 300 299 303 319 307 301 312 306 318 318 269 305 309 312 307 297 297 292 286 283 282 282 278 264 272 291 326 10 286 62 77 97 90 73 68 67 60 53 50 47 42 38
256 259 284 290 292 299 310 305 275 254 235 242 220 190 189 188 190 190 187 182 182 189 191 195 200 202 204 202 182 155 10 214 216 250 274 289 306 310 302 309 320 308 276 223 206 292 266 263 277 284 293 307 313 310 308 291 288 306 316 316 300 296 296 284 272 272 270 271 263 230 288 333 52 128 315 83 87 93 82 68 62 61 57 53 51 47 45 42
245 275 295 294 296 320 350 58 87 131 168 195 160 159 161 163 171 172 172 175 176 176 177 182 185 189 193 200 218 241 301 265 279 303 290 293 302 298 299 309 304 296 289 249 223 284 253 250 266 264 279 315 318 322 311 298 302 302 314 311 297 316 304 284 270 255 239 148 138 128 9 359 34 26 39 87 95 87 75 63 59 58 55 53 51 49 47 44
232 290 302 302 51 45 52 63 71 93 106 112 124 134 139 144 150 154 159 165 166 166 164 167 176 186 188 205 267 261 265 276 300 305 300 306 301 294 295 305 305 297 293 262 239 262 256 251 266 264 277 301 299 297 293 296 299 295 300 254 295 346 312 299 306 217 167 126 133 90 30 351 18 28 44 75 89 81 69 59 57 57 54 53 52 51 49 45
226 293 292 140 104 83 74 72 77 86 93 99 105 112 118 122 128 134 141 147 151 153 153 160 174 183 190 236 306 259 277 291 294 310 322 315 304 300 301 307 313 312 311 290 252 259 263 264 279 279 274 274 270 281 300 302 288 268 305 273 313 354 281 313 5 125 106 90 141 94 104 355 21 33 49 64 78 79 68 59 58 57 54 53 51 51 49 45
201 150 150 145 106 85 79 84 88 89 90 93 98 102 103 106 111 116 122 130 135 140 143 154 166 168 235 308 280 276 291 279 273 321 355 324 316 301 293 297 303 310 318 314 275 268 277 272 270 273 277 272 265 280 317 318 291 189 53 317 327 143 266 314 7 91 103 196 147 86 112 163 47 38 53 66 75 78 72 63 61 59 56 53 51 50 47 44
164 150 162 147 106 88 86 94 97 95 94 93 95 98 101 104 106 109 115 121 128 132 133 138 148 144 343 340 323 315 275 246 278 334 333 327 317 293 280 279 282 292 313 333 315 282 280 265 256 261 268 268 236 242 346 354 334 354 123 262 280 240 297 320 335 351 116 128 358 71 141 156 75 49 57 68 76 77 74 66 62 61 58 55 51 48 45 41
148 165 163 142 113 95 93 102 103 98 95 95 97 99 101 103 105 108 112 119 126 123 116 123 136 213 296 317 332 8 158 233 303 310 318 325 314 298 291 277 268 286 304 321 320 291 238 224 237 253 255 257 183 108 30 358 328 336 20 278 270 256 312 314 309 317 111 118 57 83 104 101 76 58 58 65 76 78 73 68 66 63 60 58 53 48 43 39
166 179 161 141 127 105 98 108 106 96 93 93 93 99 102 105 107 110 117 121 124 117 111 133 144 172 287 307 285 201 197 263 299 305 316 325 314 307 301 285 255 258 283 284 281 251 209 230 213 235 335 342 345 100 93 261 276 335 320 305 299 298 301 274 279 288 147 118 108 97 99 97 77 61 60 63 75 78 75 73 69 64 61 57 53 48 42 38
184 187 165 150 143 121 112 118 110 96 95 94 90 93 94 96 97 106 124 129 123 117 120 168 167 159 239 189 171 228 256 289 299 302 322 337 329 316 303 290 236 242 261 263 258 205 193 245 42 358 322 304 260 167 179 221 222 296 266 234 271 290 293 271 274 279 129 82 133 187 135 104 83 67 65 66 74 78 77 74 69 63 59 55 51 48 42 38
191 189 172 164 167 148 131 131 119 98 93 95 91 92 86 82 94 106 137 158 146 147 245 209 220 258 261 233 243 265 279 295 291 295 346 348 336 334 333 281 231 265 246 188 189 188 163 38 312 243 250 255 250 202 193 212 176 11 301 324 293 281 290 278 284 306 76 85 250 205 111 96 92 78 71 75 75 73 71 69 66 61 57 54 50 46 41 38
192 191 182 177 184 175 151 142 130 106 96 94 88 86 58 24 85 138 179 192 256 300 289 286 260 274 332 303 296 298 298 288 218 261 351 343 342 0 12 22 46 290 247 205 175 155 110 36 265 237 231 245 268 281 343 314 30 24 359 344 327 291 277 279 273 284 45 76 264 199 93 85 90 82 74 78 74 66 67 68 65 62 57 53 48 44 40 35
198 196 191 187 189 186 172 158 138 118 106 103 92 84 25 357 66 114 76 114 16 5 64 66 77 90 24 35 19 349 348 93 174 235 340 341 352 5 319 351 46 260 271 188 129 17 32 252 252 260 265 291 344 4 21 16 25 10 350 358 325 283 285 308 325 298 15 55 269 172 97 89 84 87 79 77 80 76 72 69 66 62 57 52 47 42 37 32
207 202 201 198 193 190 184 176 164 142 117 119 94 76 53 19 59 44 27 86 106 44 74 90 103 77 322 47 23 9 50 61 189 281 345 342 339 334 317 329 303 298 346 64 144 156 354 257 263 305 344 31 8 5 33 35 31 7 352 33 286 295 12 315 307 309 310 273 249 125 100 105 89 89 84 81 88 84 76 72 68 63 59 54 49 43 37 31
218 209 210 209 202 197 191 191 192 173 147 168 205 68 87 66 69 17 8 90 124 61 87 108 116 69 345 343 5 27 66 42 33 5 357 352 341 326 305 317 20 6 343 22 127 147 232 255 294 338 11 54 30 16 45 54 14 330 178 129 225 292 290 233 280 319 318 298 254 111 91 96 93 93 94 86 88 84 77 74 68 63 60 56 50 45 40 35
225 215 214 214 209 205 198 204 210 194 204 220 231 95 88 94 137 354 7 84 26 357 96 108 122 37 8 357 4 47 77 41 40 18 2 4 2 348 287 276 49 17 309 351 47 74 270 285 356 12 10 28 56 51 47 81 25 325 263 172 202 228 262 271 319 349 348 326 321 91 61 337 83 97 109 94 82 79 74 72 69 64 59 55 50 44 40 38
231 219 214 214 212 207 203 210 208 186 218 231 221 97 85 121 197 343 30 73 359 296 67 74 196 3 12 14 2 50 99 29 31 21 18 16 9 37 17 323 72 67 304 353 27 70 324 4 34 46 33 31 56 63 3 93 81 334 246 199 220 262 291 300 341 7 348 286 286 72 77 232 140 113 123 108 88 76 70 71 70 66 60 55 50 42 36 34
235 223 215 212 206 201 203 203 186 162 137 108 41 341 249 219 343 337 49 58 355 284 90 68 165 9 18 15 8 76 112 328 23 30 29 28 18 52 40 339 45 4 301 40 42 320 353 16 22 29 49 51 49 25 304 98 96 279 239 161 311 318 299 296 334 239 234 282 299 336 158 194 165 139 147 122 96 79 65 67 69 67 63 55 48 39 31 27
236 225 216 208 197 195 199 192 181 176 147 124 357 357 183 149 5 18 82 76 333 5 43 297 114 34 26 27 35 82 98 356 70 26 21 27 18 26 56 1 169 255 296 98 118 263 1 21 8 34 52 51 47 261 248 93 102 252 261 11 303 285 271 276 235 226 257 354 314 317 98 182 184 146 164 140 98 82 70 71 68 67 62 52 42 31 23 19
225 216 208 204 195 190 193 187 180 183 160 197 334 37 122 74 28 56 82 107 270 46 1 358 74 3 4 60 55 59 66 47 70 35 23 28 21 24 175 4 26 268 312 113 156 235 20 66 223 95 72 25 280 243 219 125 217 276 317 335 295 276 265 248 175 205 33 64 270 298 6 38 226 184 191 171 86 99 94 84 72 66 59 46 31 17 12 12
208 202 198 199 192 189 195 192 174 151 85 93 75 90 88 42 57 72 64 209 110 22 348 41 11 335 8 64 28 14 46 54 68 77 44 36 38 47 106 356 22 36 354 51 112 244 18 65 55 84 82 273 273 278 241 158 243 316 360 351 327 330 349 67 119 107 61 345 256 261 18 11 313 201 198 283 73 136 119 85 53 48 40 27 14 3 2 5
193 188 187 190 188 190 197 199 184 177 74 116 105 58 53 33 62 93 114 236 70 0 0 21 327 4 39 72 12 350 8 9 29 83 39 26 36 35 39 12 8 32 22 10 9 323 1 29 4 351 312 336 12 333 343 56 8 18 35 20 356 342 3 30 6 41 76 280 258 267 15 2 308 236 178 132 86 102 103 95 48 27 16 5 352 347 351 354
173 170 172 174 179 184 183 180 180 180 152 143 136 31 68 55 38 109 219 311 351 331 356 306 313 20 40 48 23 340 344 359 20 84 68 37 45 34 40 45 358 17 6 347 351 339 346 331 309 314 315 3 58 18 348 4 22 31 39 41 34 358 359 4 336 359 150 253 263 325 10 356 274 236 139 127 96 89 103 117 120 64 17 0 344 338 346 348
154 153 157 159 163 172 170 150 142 150 141 147 146 49 73 80 55 229 305 340 219 266 115 132 326 0 59 48 8 332 2 11 9 60 78 81 76 41 30 28 25 51 306 319 2 0 340 314 327 0 337 345 81 59 352 332 351 0 30 68 83 61 7 310 294 321 286 278 285 317 356 305 262 82 143 131 116 115 114 118 116 95 29 4 351 344 350 351
133 133 141 150 152 164 171 155 130 123 117 132 126 61 62 83 167 242 338 289 255 344 45 49 346 9 56 67 324 332 40 351 19 53 37 50 58 19 5 8 13 34 68 21 23 42 33 318 319 35 351 342 66 95 164 178 299 295 193 121 123 136 131 226 257 291 283 287 293 305 313 248 190 133 151 135 132 132 124 124 82 59 1 357 352 345 352 351
110 115 126 140 147 162 160 134 114 118 122 122 89 61 77 139 231 94 275 270 296 348 338 350 41 50 31 19 311 3 62 328 53 60 33 46 68 12 3 359 1 19 55 49 336 48 60 269 254 265 279 317 48 221 154 106 13 276 178 84 67 187 152 173 233 242 261 297 303 304 289 204 70 161 161 143 143 132 105 128 59 12 320 344 345 336 342 343
92 97 115 131 141 150 138 120 113 125 132 97 66 62 126 183 218 156 245 286 308 330 329 350 48 69 359 341 349 350 15 23 44 62 44 62 83 23 2 352 15 30 49 85 280 5 38 276 272 315 318 33 54 253 207 103 160 314 38 52 250 190 137 140 272 273 308 307 287 270 249 82 65 235 195 161 147 77 39 341 292 312 314 332 336 341 344 341
85 81 87 104 115 127 133 129 124 126 108 72 81 108 169 153 221 219 305 318 270 69 59 27 28 60 2 351 342 339 356 2 11 56 69 72 50 20 357 332 27 38 22 28 240 203 114 292 289 333 6 319 345 309 302 211 130 73 3 249 262 23 87 104 290 324 350 291 273 286 282 249 171 201 204 189 351 2 356 337 296 301 323 328 336 350 348 343
82 75 67 73 93 113 132 134 127 105 55 68 86 92 105 82 326 303 334 334 296 33 68 90 194 93 64 44 330 332 3 19 358 35 81 88 25 40 38 330 351 12 353 356 24 222 115 344 295 322 36 304 329 34 342 316 61 88 276 263 82 40 325 7 25 307 312 291 281 279 277 256 174 156 153 351 349 350 338 333 310 301 312 324 346 354 348 345
75 71 58 59 87 101 118 134 133 59 46 70 95 70 105 116 340 4 2 351 57 72 62 80 33 50 62 86 46 324 6 32 2 41 79 76 17 49 47 349 317 340 342 357 113 295 69 99 284 304 355 328 359 46 357 308 339 35 5 342 45 141 197 162 235 220 248 282 284 280 281 277 162 153 126 42 347 334 328 326 309 299 307 336 356 356 349 344
71 68 55 74 98 92 96 99 78 67 63 84 129 125 103 140 355 24 23 12 50 77 67 12 39 48 40 56 56 330 10 25 26 62 65 47 67 56 26 13 311 323 337 12 96 340 18 104 255 297 341 3 8 337 209 201 342 12 10 358 2 348 317 299 266 188 186 264 275 297 288 263 162 158 129 77 13 306 314 312 298 304 323 345 351 349 343 339
70 60 74 104 101 82 89 82 59 65 80 72 94 77 63 125 85 17 22 28 46 66 84 87 68 82 71 39 25 340 5 17 28 68 70 36 67 85 2 3 326 309 343 25 43 9 30 97 232 294 337 348 270 268 212 132 125 134 58 41 157 329 349 314 295 249 153 240 220 273 285 266 165 166 145 85 35 319 316 301 287 320 326 333 338 339 339 336
69 82 105 113 88 50 94 82 31 40 82 73 74 70 64 114 84 8 11 22 36 55 65 68 66 70 72 63 28 15 42 33 21 56 88 73 88 156 336 349 340 318 54 33 301 297 108 100 155 270 284 264 264 277 289 85 97 116 92 77 135 118 113 225 269 265 290 287 197 242 275 267 229 177 139 80 335 324 322 291 273 320 321 325 333 337 337 335
79 91 116 130 94 57 86 70 14 33 72 80 86 65 54 72 53 24 21 23 25 41 47 46 51 59 65 100 70 53 57 51 35 67 96 105 112 191 344 358 7 26 54 85 288 333 30 93 40 294 289 298 296 309 344 32 61 61 354 47 122 245 142 174 228 194 187 283 293 285 273 271 250 206 170 33 326 338 339 314 311 326 328 333 335 335 334 332
88 82 83 109 177 17 73 113 99 76 81 92 85 57 58 65 47 32 26 14 13 41 62 42 36 48 62 130 88 86 96 85 67 60 85 119 159 66 30 29 42 51 52 131 257 341 348 159 40 0 334 339 338 341 343 348 21 6 282 311 131 174 108 90 303 86 99 259 224 233 263 267 216 212 246 325 342 345 341 334 334 333 331 333 332 330 330 328
90 74 62 58 42 24 91 146 142 131 148 117 92 70 71 59 40 47 58 37 36 54 74 77 27 46 18 33 71 39 38 88 103 13 48 72 202 94 60 45 53 76 80 70 316 354 162 191 102 86 318 313 314 309 308 307 319 311 260 276 258 166 142 126 14 81 252 257 138 195 254 280 274 269 304 329 343 338 329 328 330 329 327 327 327 325 324 323
86 86 56 50 56 65 89 130 129 122 150 131 86 73 82 69 45 59 56 47 45 52 61 56 19 41 27 34 60 27 15 51 74 74 63 4 272 213 90 66 53 72 84 28 5 24 117 67 103 134 180 220 244 258 265 290 301 296 294 293 270 200 158 132 110 243 227 240 304 241 244 285 297 301 312 320 328 323 315 322 325 325 325 324 322 321 319 318
86 122 134 74 67 73 80 103 111 110 146 140 108 90 98 100 173 42 38 55 62 58 66 48 31 55 50 37 63 15 345 29 54 64 77 273 264 288 127 114 42 19 74 27 5 44 94 0 307 131 202 234 242 265 278 292 284 277 286 287 258 195 157 149 214 239 186 108 285 262 263 296 291 297 306 309 316 312 311 320 322 322 322 321 319 318 319 319
105 112 118 123 129 81 71 95 105 94 94 108 100 97 99 76 47 42 27 59 62 46 62 43 21 39 57 62 123 64 350 29 46 22 14 301 310 342 356 97 43 38 77 43 17 83 111 251 246 200 267 260 260 273 275 277 277 271 276 284 269 210 181 186 227 225 158 197 264 278 309 292 286 299 305 304 310 309 312 316 317 318 319 318 318 320 321 320
124 120 102 101 116 119 110 115 107 91 68 72 74 64 99 89 81 114 353 24 26 5 40 94 336 359 22 42 108 123 325 99 107 272 207 224 308 4 36 334 32 62 75 61 14 74 110 223 263 272 277 269 264 269 275 289 295 289 285 285 267 200 193 200 224 224 190 228 261 298 308 289 285 296 295 297 306 310 312 313 313 316 316 317 319 321 319 318
142 142 122 108 97 90 102 106 102 91 57 49 69 65 100 101 122 146 24 44 109 332 28 110 208 304 62 58 76 138 200 175 173 212 179 136 333 151 149 222 211 5 27 52 335 12 79 275 307 5 315 290 267 268 295 308 296 293 295 285 224 191 235 216 190 240 255 259 281 315 310 293 287 288 289 297 309 313 312 310 312 314 315 317 320 319 318 321
160 155 138 123 94 34 74 95 93 95 48 21 82 136 78 99 151 141 47 42 100 96 64 136 168 351 73 62 69 174 223 211 193 212 193 171 205 203 191 168 145 351 355 38 321 4 72 283 333 35 353 295 279 303 310 310 305 300 297 285 213 199 251 225 187 218 217 242 291 314 305 286 293 304 303 307 313 312 309 311 315 316 318 320 319 319 324 331
145 141 138 126 91 10 33 53 46 80 86 334 134 127 94 133 156 135 86 39 75 80 67 132 99 53 74 53 27 221 249 263 238 250 256 244 245 237 242 264 145 156 181 153 175 28 102 111 352 31 337 287 298 316 314 327 335 307 280 255 215 210 248 267 231 214 217 215 247 280 274 278 302 314 312 312 314 312 312 316 318 317 317 317 317 323 332 334